Probability
17 17 17 16 15 13 9 7 6 5 5 5 6 6 4 1 0 0 0 1 2 3 3 3 2 1 1 0 0 0 0 0 0 1 1 0 0 0 0 0 1 2 3
16 15 15 16 16 13 10 9 8 6 5 4 3 4 3 1 0 0 0 1 2 2 2 3 4 3 2 1 0 0 0 0 0 1 1 0 0 0 0 0 1 2 2
15 12 12 15 15 13 11 9 8 6 4 2 2 2 2 1 2 2 1 0 1 2 2 2 3 3 3 2 1 1 0 0 1 1 1 1 1 1 0 1 1 1 2
14 11 10 12 13 12 10 8 6 4 3 3 3 4 3 2 4 5 3 1 1 1 2 2 3 4 4 4 3 2 1 2 3 2 1 1 2 1 1 1 2 2 2
13 11 10 12 14 13 12 10 7 5 4 4 6 7 7 6 6 6 5 3 2 2 2 4 5 6 6 4 4 4 5 5 5 3 1 1 2 1 0 1 1 2 1
12 12 13 14 15 14 14 13 11 9 7 7 8 9 11 11 9 7 6 5 4 3 3 5 8 9 8 7 6 7 8 7 5 3 1 1 1 1 1 1 1 1 1
15 15 16 16 17 17 15 14 13 12 11 11 11 11 12 13 11 9 8 7 5 4 5 7 9 10 10 10 10 10 9 7 5 3 3 3 4 4 4 3 3 2 1
16 17 17 16 17 18 17 15 13 13 14 15 14 12 12 12 12 11 10 8 6 7 8 9 10 10 11 11 11 10 7 6 5 5 5 5 6 6 6 5 5 4 3
15 16 16 15 15 17 17 15 13 13 15 17 15 12 11 11 12 12 11 9 8 9 11 12 11 10 10 10 8 7 6 6 6 6 7 7 6 7 7 8 8 6 5
15 15 15 14 13 15 16 16 14 14 16 17 15 13 12 12 12 12 12 12 11 12 14 14 13 12 10 9 7 5 5 6 6 7 7 7 6 7 8 9 9 7 6
14 14 14 14 14 15 17 17 17 17 18 18 18 17 16 16 14 13 14 14 14 13 14 15 14 12 10 9 8 6 5 6 6 6 6 6 6 7 7 7 8 7 6
12 13 13 12 14 16 19 20 21 21 21 22 23 22 19 17 15 14 15 15 15 14 14 14 13 10 9 10 9 7 6 6 7 7 7 7 6 6 6 5 5 6 6
10 12 13 13 14 17 19 22 23 23 24 25 27 25 20 15 14 15 16 17 16 15 15 14 11 8 8 9 8 7 7 7 7 8 8 7 6 6 5 4 4 5 5
8 11 13 15 16 17 18 20 21 22 22 25 26 25 19 15 14 14 16 18 18 17 16 14 11 9 9 9 7 6 6 7 7 7 6 5 5 5 5 5 5 4 4
9 10 12 14 15 15 15 16 17 18 19 20 23 22 19 16 14 13 15 18 18 16 15 13 12 10 9 8 6 5 4 4 4 3 3 2 2 3 3 4 3 2 1
11 11 12 12 13 12 11 12 14 16 17 18 19 19 19 18 16 15 16 16 16 15 15 14 13 11 8 5 3 2 1 1 1 1 1 0 1 1 1 1 1 0 0
12 11 12 12 12 11 12 13 14 15 16 15 15 16 18 19 18 17 16 15 14 14 15 14 13 9 5 3 1 0 0 0 0 0 0 0 1 1 0 0 0 0 0
10 10 12 13 13 13 15 15 14 13 12 11 10 12 15 18 18 17 16 15 14 14 13 12 9 6 4 2 1 0 0 0 0 0 0 0 1 1 0 0 0 0 0
10 12 14 16 16 17 18 16 13 10 8 7 7 9 12 14 16 16 15 14 14 13 11 8 5 4 3 2 1 0 0 0 0 0 0 0 0 0 0 0 0 0 0
14 15 16 17 18 19 19 16 11 7 6 4 5 7 9 11 13 13 12 11 11 10 7 5 3 3 3 2 0 0 0 0 0 0 0 0 0 0 0 0 0 0 0
15 16 16 16 16 17 17 13 9 6 5 4 5 6 8 10 12 12 11 10 9 7 5 3 3 4 4 2 1 0 0 0 0 0 0 0 0 0 0 0 0 0 0
15 15 15 14 12 12 13 11 9 8 6 6 6 7 8 9 10 10 10 10 9 6 4 3 3 3 3 2 1 0 0 0 0 0 0 0 0 0 0 0 0 0 0
14 14 12 10 9 9 10 11 10 9 9 9 7 7 7 7 8 8 9 9 8 6 4 3 3 3 3 2 1 0 0 0 0 0 0 0 0 0 0 0 0 0 0
12 11 9 8 8 8 10 11 11 11 11 10 8 7 7 6 6 6 7 8 8 7 5 4 3 4 4 4 2 1 0 0 0 0 0 0 0 0 0 0 0 0 1
10 9 8 8 9 9 10 11 11 11 11 9 7 7 6 5 4 4 4 5 7 6 5 3 4 4 5 5 4 2 0 0 0 0 0 0 0 0 0 0 1 1 2
10 9 9 9 10 10 11 11 11 11 11 9 7 6 5 4 3 3 3 4 5 5 4 3 4 4 4 4 4 2 0 0 0 0 0 0 0 0 0 1 2 2 3
Wind_Speed
6 6 8 8 7 5 5 4 4 4 3 2 2 1 1 1 1 1 3 3 2 2 2 1 1 1 1 2 1 1 1 1 1 1 3 3 2 2 2 2 2 3 4
6 6 7 7 7 6 5 5 3 3 3 2 2 2 2 1 2 1 1 2 2 2 2 2 2 2 1 1 1 1 0 1 0 1 1 3 4 3 2 1 1 2 2
10 9 8 7 7 7 6 5 4 3 3 3 1 1 1 1 0 1 1 2 2 2 2 2 2 2 2 2 2 2 2 1 1 1 2 1 2 3 3 2 1 1 1
8 8 8 8 8 7 6 5 5 3 3 3 2 3 2 2 3 2 2 2 1 1 2 2 2 2 2 2 2 2 2 2 1 1 1 2 3 1 3 3 2 2 2
9 9 9 9 8 7 7 6 5 4 3 3 3 3 2 2 1 1 1 1 2 2 2 2 2 2 2 2 2 1 1 2 2 1 1 1 0 1 2 3 3 3 2
10 9 8 7 6 5 6 5 5 4 3 3 3 3 3 2 2 2 2 1 1 1 1 2 2 2 1 2 2 2 2 2 1 1 1 1 1 2 2 2 3 3 3
9 9 9 8 7 7 6 5 5 4 4 3 3 3 3 3 3 3 3 2 1 1 2 2 2 1 2 2 2 2 2 2 2 2 2 2 2 2 2 2 2 2 2
8 10 10 9 8 8 7 6 6 5 4 4 4 3 3 2 2 3 3 3 2 3 3 2 2 1 2 2 1 1 2 1 2 2 2 1 2 2 2 2 2 1 2
7 8 8 8 8 8 8 8 7 6 5 5 4 3 3 3 2 2 2 2 2 2 2 2 2 2 1 1 2 1 2 1 1 2 2 1 2 2 1 2 2 2 2
5 5 5 6 6 6 6 6 7 6 5 4 4 3 3 3 3 2 2 2 2 2 1 1 1 1 1 1 1 1 1 1 1 1 1 2 2 2 1 1 1 2 3
5 5 5 4 4 4 5 5 5 4 4 4 4 3 3 2 2 2 2 2 1 1 1 1 0 0 1 1 0 1 1 1 1 1 1 2 2 1 2 1 1 1 2
4 4 4 4 4 3 3 4 4 4 4 4 3 2 1 1 1 1 1 1 1 1 1 1 0 0 0 0 1 1 1 1 1 2 1 2 2 2 1 1 1 2 2
4 3 3 3 3 3 3 3 3 3 3 3 3 2 1 1 1 2 1 1 1 1 0 0 0 1 1 1 1 1 1 1 1 2 2 2 1 2 2 1 1 2 2
5 4 3 3 2 2 2 2 2 2 3 3 2 2 2 2 2 2 1 1 1 1 1 1 1 1 1 1 1 1 1 1 1 1 1 1 1 1 2 2 2 2 2
5 5 4 3 3 3 2 2 2 1 2 2 2 3 2 2 1 1 1 1 1 1 1 1 1 1 1 1 1 1 0 0 1 1 1 1 1 1 1 2 2 1 1
5 5 4 4 3 3 3 2 2 1 2 2 1 1 1 1 1 2 1 1 1 1 0 1 2 1 1 2 1 0 0 1 1 1 2 2 1 2 3 4 3 2 2
5 5 5 4 3 3 3 3 2 2 2 2 1 1 1 1 2 2 1 1 2 1 2 3 2 2 2 1 1 1 0 1 1 2 2 2 2 2 2 4 5 4 4
5 4 4 3 2 2 2 2 3 3 3 2 1 0 1 1 1 1 1 2 2 2 3 3 2 2 1 1 0 1 1 1 2 2 2 2 2 3 2 3 3 4 4
5 5 4 4 3 3 3 3 2 2 2 1 0 0 1 0 1 1 3 2 2 2 2 2 2 2 2 1 1 1 1 1 2 2 2 1 2 4 3 2 3 5 5
3 3 3 3 3 3 3 4 2 1 1 1 1 0 0 1 1 2 2 2 2 2 1 1 2 3 2 2 2 2 1 0 2 2 2 2 3 4 2 1 2 4 5
4 4 4 3 3 2 4 3 2 2 2 1 0 0 1 1 2 1 2 1 1 0 0 0 2 2 2 2 3 3 2 2 2 2 3 3 5 5 4 3 3 5 5
3 4 4 2 1 3 4 2 1 1 1 1 0 1 1 2 1 1 1 1 1 1 1 0 1 2 1 2 3 3 3 2 2 3 3 4 6 5 6 3 4 5 3
2 3 4 3 1 2 4 3 2 1 1 1 0 1 2 2 1 0 1 0 1 1 1 1 1 2 2 2 3 3 2 2 2 3 4 5 6 5 4 5 5 3 1
2 2 3 3 1 1 1 2 2 1 2 1 1 1 1 2 2 1 1 1 1 1 2 2 2 2 2 2 2 1 1 1 2 3 4 5 5 4 4 4 3 2 2
1 2 3 3 2 1 1 1 1 1 1 1 1 1 1 1 1 1 1 1 2 3 3 3 3 3 3 4 4 3 3 2 2 1 1 2 2 2 2 2 2 2 2
2 2 2 2 2 1 1 1 1 1 1 1 1 1 1 1 1 0 2 4 2 1 2 3 3 3 4 5 5 5 4 3 2 1 1 2 2 3 3 3 3 2 2
Wind_Direction
158 143 141 138 133 128 130 138 143 151 143 145 154 158 180 190 181 197 201 203 206 190 179 211 214 199 198 220 229 236 274 286 297 1 327 317 298 271 246 237 226 223 215
152 148 143 143 143 142 139 137 150 161 163 171 173 175 170 192 198 218 212 210 205 205 199 195 208 208 204 232 224 178 209 295 58 131 37 338 336 324 288 259 236 237 218
166 164 157 154 151 153 156 159 168 172 178 170 130 95 64 41 12 266 256 243 215 213 211 201 201 199 193 211 221 198 178 240 290 148 148 159 255 301 314 302 282 260 249
164 164 161 162 165 168 163 165 172 174 184 166 149 155 167 197 223 223 227 252 244 232 219 211 222 214 202 205 223 196 190 177 231 281 217 188 183 198 303 316 311 281 249
166 167 167 168 171 167 164 170 165 173 179 168 164 164 186 213 221 216 216 246 264 252 236 218 218 203 207 217 221 206 196 188 192 208 241 263 245 181 199 285 310 315 285
166 164 162 157 162 168 166 163 165 185 191 185 181 180 194 201 188 205 214 244 265 269 255 224 211 199 200 218 221 215 208 206 185 192 190 187 204 217 199 239 270 282 282
164 159 160 165 172 174 175 174 176 196 202 194 198 200 203 198 200 206 200 209 243 254 249 235 234 223 206 208 208 211 217 216 209 216 218 212 221 211 195 211 257 274 285
167 168 170 174 179 181 181 180 185 200 204 202 211 213 209 205 209 204 195 206 222 230 231 220 226 232 229 225 203 197 222 205 221 233 225 235 251 228 203 200 211 287 304
167 173 173 173 177 182 184 185 188 198 205 209 210 212 209 202 207 212 201 215 233 230 209 206 225 232 225 214 190 203 226 218 237 238 237 246 265 262 240 212 189 191 254
148 164 169 170 175 182 182 183 189 197 204 206 208 202 211 213 213 204 209 220 236 249 209 210 231 237 237 236 189 215 215 164 241 239 253 270 273 276 273 248 230 197 202
160 163 173 174 169 166 168 182 189 192 199 205 207 210 208 208 203 194 216 222 229 211 174 199 228 246 280 283 255 243 216 198 259 269 246 269 273 273 277 256 244 229 190
152 150 154 148 148 157 169 179 183 190 204 202 195 203 198 177 183 200 215 196 213 219 196 179 148 185 250 266 233 246 222 203 238 259 258 274 295 299 284 271 270 257 218
134 128 121 125 140 148 153 160 177 193 195 171 160 164 166 164 187 197 199 191 187 228 261 184 225 241 231 266 279 264 235 216 228 237 232 257 298 305 298 288 278 264 259
145 142 136 139 149 155 156 162 184 181 167 157 158 168 192 196 202 204 199 194 184 188 244 259 266 242 231 255 277 281 279 260 253 242 228 245 238 256 277 283 273 266 266
136 142 152 160 157 146 142 152 168 164 156 163 181 201 207 199 199 213 214 203 195 184 220 275 311 295 263 275 272 254 257 270 277 281 258 252 258 279 284 306 284 280 270
145 150 159 162 160 155 151 142 150 161 145 146 190 200 181 195 217 221 201 173 209 234 219 231 236 267 294 314 338 119 175 272 266 284 292 285 280 301 313 312 301 267 245
158 160 165 171 178 177 160 152 158 117 98 98 104 161 189 214 235 221 183 199 211 204 228 236 210 227 280 310 335 1 184 286 284 275 285 296 312 316 322 316 316 305 287
169 170 166 155 163 155 138 131 110 91 84 75 65 72 192 212 236 227 231 235 227 225 232 231 205 203 267 304 315 9 22 337 312 288 265 267 289 312 320 313 319 310 303
181 177 167 159 151 146 139 111 98 97 98 98 70 201 171 190 245 251 245 235 235 259 256 224 195 194 249 248 188 111 71 9 325 312 304 277 285 304 319 320 312 312 306
150 153 144 132 138 150 132 123 127 128 148 195 218 272 224 201 222 236 239 239 226 236 236 198 210 202 215 223 191 165 156 261 296 305 300 286 293 305 309 275 283 295 297
138 134 129 135 153 149 131 136 152 194 214 203 163 335 299 256 235 241 249 225 202 157 155 216 261 239 225 223 202 189 184 212 259 287 295 293 301 305 303 289 253 267 281
128 128 121 120 134 134 127 130 190 228 191 158 152 307 302 294 293 274 286 267 165 158 177 207 280 284 266 235 220 209 211 207 217 259 274 284 296 301 303 299 293 297 301
137 126 125 124 129 138 137 148 214 190 142 117 282 296 312 325 324 221 212 221 165 166 193 196 231 264 274 265 243 226 224 230 232 259 279 295 303 302 300 302 305 310 315
138 126 122 135 162 152 139 167 196 177 143 182 278 300 324 329 338 347 198 186 193 193 199 202 224 249 263 262 263 263 257 267 272 285 297 300 300 297 295 307 309 296 270
149 130 139 154 182 176 182 212 198 148 141 220 263 287 301 290 310 323 313 241 229 214 203 210 206 209 244 252 240 220 235 238 246 271 312 331 328 326 319 311 297 293 302
142 134 140 152 176 168 196 273 250 156 154 224 272 264 271 272 261 288 350 4 349 307 228 213 204 223 234 251 250 242 245 243 223 170 254 270 271 273 277 279 286 282 275